Weather History for Omaha Millard, NE

Change the Weather History Date:

Sunday, February 23, 2014

  Actual Average (KOMA) Record (KOMA)
Temperature  
Mean Temperature 26 °F 31 °F  
Max Temperature 31 °F 41 °F 68 °F (2002)
Min Temperature 21 °F 21 °F -10 °F (1989)
Degree Days  
Heating Degree Days 39 34  
Month to date heating degree days 867  
Since 1 July heating degree days 4632  
Cooling Degree Days 0 0  
Month to date cooling degree days 0  
Year to date cooling degree days 0  
Moisture  
Dew Point 8 °F    
Average Humidity 47    
Maximum Humidity 64    
Minimum Humidity 36    
Precipitation  
Precipitation 0.00 in 0.03 in 0.59 in (1942)
Month to date precipitation 0.66  
Year to date precipitation 1.38  
Snow  
Snow 0.00 in 0.20 in - ()
Month to date snowfall 5.2  
Since 1 July snowfall 20.3  
Snow Depth -    
Sea Level Pressure  
Sea Level Pressure 30.32 in    
Wind  
Wind Speed 3 mph (North)    
Max Wind Speed 8 mph    
Max Gust Speed 20 mph    
Visibility 10 miles    
Events      
T = Trace of Precipitation, MM = Missing Value Source: NWS Daily Summary

Daily Weather History Graph

Daily Weather History Graph

Search for Another Location

Airport:

Trip Planner

Search our weather history database for the weather conditions in past years. The results will help you decide how hot, cold, wet, or windy it might be!

Date:

Astronomy

Feb. 23, 2014 Rise Set
Actual Time 7:07 AM CST 6:08 PM CST
Civil Twilight 6:39 AM CST 6:36 PM CST
Nautical Twilight 6:07 AM CST 7:08 PM CST
Astronomical Twilight 5:36 AM CST 7:40 PM CST
Moon 2:08 AM CST (2/23) 12:10 PM CST (2/23)
Length of Visible Light 11h 56m
Length of Day
11h 00m
Last Quarter, 38% of the Moon is Illuminated
Feb 23
Last Quarter
Mar 1
New
Mar 8
First Quarter
Mar 16
Full
Mar 23
Last Quarter

Hourly Weather History & Observations

Time (CST) Temp. Windchill Dew Point Humidity Pressure Visibility Wind Dir Wind Speed Gust Speed Precip Events Conditions
12:15 AM 29.1 °F - 14.0 °F 53% 30.20 in 10.0 mi Calm Calm - N/A   Overcast
12:35 AM 28.8 °F 21.7 °F 11.1 °F 48% 30.22 in 10.0 mi North 6.9 mph - N/A   Mostly Cloudy
12:55 AM 28.2 °F 21.0 °F 9.5 °F 45% 30.22 in 10.0 mi NNE 6.9 mph - N/A   Scattered Clouds
1:15 AM 27.5 °F 23.6 °F 10.6 °F 49% 30.21 in 10.0 mi North 3.5 mph - N/A   Scattered Clouds
1:35 AM 26.6 °F 21.2 °F 9.9 °F 49% 30.22 in 10.0 mi NNE 4.6 mph - N/A   Clear
1:55 AM 26.4 °F 18.0 °F 9.5 °F 49% 30.22 in 10.0 mi North 8.1 mph - N/A   Clear
2:15 AM 25.7 °F 17.1 °F 7.3 °F 46% 30.23 in 10.0 mi North 8.1 mph 19.6 mph N/A   Scattered Clouds
2:35 AM 25.3 °F 17.6 °F 7.5 °F 47% 30.23 in 10.0 mi North 6.9 mph - N/A   Overcast
2:55 AM 24.8 °F 16.9 °F 7.9 °F 49% 30.23 in 10.0 mi NNE 6.9 mph - N/A   Mostly Cloudy
3:15 AM 24.6 °F 15.8 °F 7.3 °F 48% 30.23 in 10.0 mi North 8.1 mph - N/A   Mostly Cloudy
3:35 AM 23.9 °F 15.8 °F 5.7 °F 46% 30.23 in 10.0 mi North 6.9 mph - N/A   Overcast
3:55 AM 23.7 °F 19.3 °F 5.5 °F 46% 30.23 in 10.0 mi North 3.5 mph - N/A   Scattered Clouds
4:15 AM 23.5 °F - 6.3 °F 48% 30.24 in 10.0 mi Calm Calm - N/A   Clear
4:35 AM 23.4 °F - 7.5 °F 51% 30.24 in 10.0 mi Calm Calm - N/A   Clear
4:55 AM 23.2 °F - 7.9 °F 52% 30.25 in 10.0 mi Calm Calm - N/A   Clear
5:15 AM 22.8 °F 18.2 °F 7.5 °F 52% 30.25 in 10.0 mi NNW 3.5 mph - N/A   Clear
5:35 AM 22.6 °F - 7.7 °F 53% 30.26 in 10.0 mi Calm Calm - N/A   Clear
5:55 AM 22.5 °F - 8.4 °F 55% 30.28 in 10.0 mi Calm Calm - N/A   Clear
6:15 AM 21.9 °F 17.2 °F 9.5 °F 59% 30.28 in 10.0 mi North 3.5 mph - N/A   Clear
6:35 AM 21.7 °F - 9.5 °F 59% 30.30 in 10.0 mi Calm Calm - N/A   Scattered Clouds
6:55 AM 21.6 °F - 9.7 °F 60% 30.30 in 10.0 mi Calm Calm - N/A   Overcast
7:15 AM 21.2 °F - 9.3 °F 60% 30.30 in 10.0 mi Calm Calm - N/A   Overcast
7:35 AM 21.2 °F 14.9 °F 8.6 °F 58% 30.31 in 10.0 mi North 4.6 mph - N/A   Overcast
7:55 AM 21.2 °F 16.4 °F 8.4 °F 58% 30.32 in 10.0 mi North 3.5 mph - N/A   Overcast
8:15 AM 21.2 °F - 6.4 °F 53% 30.32 in 10.0 mi Calm Calm - N/A   Overcast
8:35 AM 21.2 °F 16.4 °F 5.9 °F 52% 30.32 in 10.0 mi NNW 3.5 mph - N/A   Overcast
8:55 AM 21.7 °F - 4.3 °F 47% 30.34 in 10.0 mi Calm Calm - N/A   Scattered Clouds
9:15 AM 21.9 °F - 3.9 °F 46% 30.34 in 10.0 mi Calm Calm - N/A   Mostly Cloudy
9:35 AM 22.3 °F 17.6 °F 2.1 °F 42% 30.35 in 10.0 mi North 3.5 mph - N/A   Mostly Cloudy
9:55 AM 23.0 °F 15.8 °F 3.9 °F 44% 30.36 in 10.0 mi NNW 5.8 mph - N/A   Scattered Clouds
10:15 AM 23.0 °F 13.9 °F 4.1 °F 44% 30.37 in 10.0 mi NNW 8.1 mph - N/A   Scattered Clouds
10:35 AM 23.9 °F 16.8 °F 5.2 °F 45% 30.37 in 10.0 mi NNW 5.8 mph - N/A   Mostly Cloudy
10:55 AM 24.3 °F 15.4 °F 2.3 °F 39% 30.37 in 10.0 mi NNW 8.1 mph - N/A   Mostly Cloudy
11:15 AM 24.4 °F 18.6 °F 2.5 °F 39% 30.37 in 10.0 mi North 4.6 mph - N/A   Mostly Cloudy
11:35 AM 25.2 °F 16.5 °F 3.0 °F 39% 30.37 in 10.0 mi North 8.1 mph - N/A   Mostly Cloudy
11:55 AM 25.7 °F - 3.7 °F 39% 30.37 in 10.0 mi Calm Calm - N/A   Overcast
12:15 PM 25.7 °F 17.1 °F 4.1 °F 40% 30.37 in 10.0 mi NW 8.1 mph - N/A   Mostly Cloudy
12:35 PM 26.4 °F - 3.9 °F 38% 30.37 in 10.0 mi Calm Calm - N/A   Mostly Cloudy
12:55 PM 27.3 °F - 4.5 °F 38% 30.36 in 10.0 mi Calm Calm - N/A   Mostly Cloudy
1:15 PM 28.2 °F 24.4 °F 4.8 °F 37% 30.35 in 10.0 mi North 3.5 mph - N/A   Overcast
1:35 PM 29.3 °F - 5.4 °F 36% 30.35 in 10.0 mi Calm Calm - N/A   Mostly Cloudy
1:55 PM 29.5 °F 25.9 °F 5.9 °F 37% 30.34 in 10.0 mi NNE 3.5 mph - N/A   Scattered Clouds
2:15 PM 29.5 °F 23.4 °F 5.9 °F 37% 30.34 in 10.0 mi North 5.8 mph - N/A   Scattered Clouds
2:35 PM 30.0 °F 22.4 °F 6.8 °F 38% 30.33 in 10.0 mi NNW 8.1 mph - N/A   Mostly Cloudy
2:55 PM 30.0 °F 25.2 °F 7.0 °F 38% 30.33 in 10.0 mi NNW 4.6 mph - N/A   Overcast
3:15 PM 29.5 °F - 7.0 °F 39% 30.33 in 10.0 mi Calm Calm - N/A   Overcast
3:35 PM 29.7 °F - 7.2 °F 39% 30.33 in 10.0 mi Calm Calm - N/A   Overcast
3:55 PM 30.2 °F 26.7 °F 7.5 °F 39% 30.33 in 10.0 mi NNW 3.5 mph 17.3 mph N/A   Overcast
4:15 PM 30.7 °F 24.9 °F 7.5 °F 38% 30.33 in 10.0 mi NW 5.8 mph - N/A   Overcast
4:35 PM 31.1 °F 24.5 °F 7.7 °F 37% 30.33 in 10.0 mi NW 6.9 mph - N/A   Scattered Clouds
4:55 PM 30.9 °F 25.2 °F 7.5 °F 37% 30.33 in 10.0 mi NNW 5.8 mph - N/A   Scattered Clouds
5:15 PM 30.7 °F 24.1 °F 6.8 °F 36% 30.33 in 10.0 mi NW 6.9 mph - N/A   Scattered Clouds
5:35 PM 30.2 °F 24.3 °F 7.2 °F 38% 30.34 in 10.0 mi NNW 5.8 mph - N/A   Clear
5:55 PM 29.7 °F 26.1 °F 7.0 °F 38% 30.34 in 10.0 mi North 3.5 mph - N/A   Scattered Clouds
6:15 PM 29.1 °F - 6.6 °F 39% 30.34 in 10.0 mi Calm Calm - N/A   Scattered Clouds
6:35 PM 28.8 °F - 6.3 °F 39% 30.34 in 10.0 mi Calm Calm - N/A   Clear
6:55 PM 28.4 °F - 7.0 °F 40% 30.35 in 10.0 mi Calm Calm - N/A   Scattered Clouds
7:15 PM 27.3 °F - 7.5 °F 43% 30.35 in 10.0 mi Calm Calm - N/A   Scattered Clouds
7:35 PM 26.2 °F - 8.1 °F 46% 30.34 in 10.0 mi Calm Calm - N/A   Clear
7:55 PM 25.3 °F - 8.8 °F 50% 30.35 in 10.0 mi Calm Calm - N/A   Clear
8:15 PM 24.3 °F - 8.8 °F 52% 30.34 in 10.0 mi Calm Calm - N/A   Clear
8:35 PM 23.2 °F - 9.5 °F 56% 30.34 in 10.0 mi Calm Calm - N/A   Clear
8:55 PM 23.0 °F - 9.3 °F 56% 30.35 in 10.0 mi Calm Calm - N/A   Clear
9:15 PM 22.5 °F - 11.1 °F 62% 30.34 in 10.0 mi Calm Calm - N/A   Clear
9:35 PM 21.7 °F - 11.1 °F 64% 30.35 in 10.0 mi Calm Calm - N/A   Clear
9:55 PM 23.0 °F - 10.8 °F 60% 30.36 in 10.0 mi Calm Calm - N/A   Clear
10:15 PM 23.7 °F - 13.3 °F 64% 30.36 in 10.0 mi Calm Calm - N/A   Mostly Cloudy
10:35 PM 24.4 °F - 12.9 °F 62% 30.37 in 10.0 mi Calm Calm - N/A   Overcast
10:55 PM 25.3 °F - 11.7 °F 56% 30.37 in 10.0 mi Calm Calm - N/A   Mostly Cloudy
11:15 PM 25.3 °F - 11.7 °F 56% 30.36 in 10.0 mi Calm Calm - N/A   Mostly Cloudy
11:35 PM 26.1 °F - 9.5 °F 50% 30.36 in 10.0 mi Calm Calm - N/A   Scattered Clouds
11:55 PM 25.7 °F - 10.4 °F 52% 30.36 in 10.0 mi Calm Calm - N/A   Clear